Location: Prescott
(34.5400°N, 112.4680°W)
Time: 07:11:27
(UTC-07:00)

ISS - Visible Passes

Search period start: 20 April 2019 00:00
Search period end: 30 April 2019 00:00
Orbit: 408 x 410 km, 51.6° (Epoch: 20 April)

Date Brightness Start Highest point End Pass type
(mag) Time Alt. Az. Time Alt. Az. Time Alt. Az.
25 Apr -1.4 05:02:08 10° S 05:04:36 20° SE 05:07:05 10° E visible
27 Apr -3.4 04:56:16 12° SW 04:59:17 61° SE 05:02:33 10° NE visible
28 Apr -2.3 04:07:41 25° SSE 04:08:31 28° SE 04:11:24 10° ENE visible
29 Apr -0.8 03:18:59 12° ESE 03:18:59 12° ESE 03:19:39 10° E visible
29 Apr -3.1 04:51:44 16° WSW 04:54:05 42° NW 04:57:16 10° NE visible
